Satellite: METEOR-M
Catalog number: 35865
Epoch time:      12299.75559991
Element set:     902
Inclination:      098.6383 deg
RA of node:       351.5241 deg
Eccentricity:    0.0003298
Arg of perigee:   043.5461 deg
Mean anomaly:     316.5975 deg
Mean motion:   14.21872540 rev/day
Decay rate:        1.2e-07 rev/day^2
Epoch rev:           16115
Checksum:              312

Satellite: RS-38
Catalog number: 35869
Epoch time:      12299.75697313
Element set:     885
Inclination:      098.6337 deg
RA of node:       351.4982 deg
Eccentricity:    0.0005421
Arg of perigee:   041.5648 deg
Mean anomaly:     318.5938 deg
Mean motion:   14.22094669 rev/day
Decay rate:        7.9e-07 rev/day^2
Epoch rev:           16117
Checksum:              358

Satellite: JUGNU
Catalog number: 37839
Epoch time:      12298.34604136
Element set:    0255
Inclination:      019.9590 deg
RA of node:       295.7508 deg
Eccentricity:    0.0018994
Arg of perigee:   204.5637 deg
Mean anomaly:     155.3863 deg
Mean motion:   14.12094638 rev/day
Decay rate:       6.20e-06 rev/day^2
Epoch rev:           05352
Checksum:              319

Satellite: SRMSAT
Catalog number: 37841
Epoch time:      12298.36427003
Element set:    0257
Inclination:      019.9686 deg
RA of node:       303.0543 deg
Eccentricity:    0.0012252
Arg of perigee:   170.0246 deg
Mean anomaly:     190.0410 deg
Mean motion:   14.10172603 rev/day
Decay rate:       2.64e-06 rev/day^2
Epoch rev:           05345
Checksum:              251

Satellite: RAX-2
Catalog number: 37853
Epoch time:      12298.94046824
Element set:    0334
Inclination:      101.7039 deg
RA of node:       038.2514 deg
Eccentricity:    0.0243173
Arg of perigee:   340.6149 deg
Mean anomaly:     018.5900 deg
Mean motion:   14.81163021 rev/day
Decay rate:      5.135e-05 rev/day^2
Epoch rev:           05360
Checksum:              275

Satellite: AUBIESAT
Catalog number: 37854
Epoch time:      12299.87073008
Element set:     322
Inclination:      101.7062 deg
RA of node:       040.0413 deg
Eccentricity:    0.0242994
Arg of perigee:   337.1178 deg
Mean anomaly:     021.9323 deg
Mean motion:   14.81661249 rev/day
Decay rate:      6.031e-05 rev/day^2
Epoch rev:            5373
Checksum:              277

Satellite: HRBE
Catalog number: 37855
Epoch time:      12299.89941486
Element set:     318
Inclination:      101.7075 deg
RA of node:       039.9889 deg
Eccentricity:    0.0244223
Arg of perigee:   337.2152 deg
Mean anomaly:     021.8353 deg
Mean motion:   14.81454858 rev/day
Decay rate:      5.642e-05 rev/day^2
Epoch rev:            5373
Checksum:              332

Satellite: RS-39
Catalog number: 38051
Epoch time:      12299.88598756
Element set:     828
Inclination:      051.6370 deg
RA of node:       256.0270 deg
Eccentricity:    0.0013756
Arg of perigee:   140.3683 deg
Mean anomaly:     263.1372 deg
Mean motion:   15.26810022 rev/day
Decay rate:     2.0398e-04 rev/day^2
Epoch rev:            4192
Checksum:              314

Satellite: E-STAR
Catalog number: 38079
Epoch time:      12299.62917361
Element set:     596
Inclination:      069.4828 deg
RA of node:       015.6097 deg
Eccentricity:    0.0697809
Arg of perigee:   082.0239 deg
Mean anomaly:     285.9446 deg
Mean motion:   14.24884213 rev/day
Decay rate:     4.3967e-04 rev/day^2
Epoch rev:            3609
Checksum:              363

Satellite: GOLIAT
Catalog number: 38085
Epoch time:      12299.64953393
Element set:     562
Inclination:      069.4832 deg
RA of node:       016.3335 deg
Eccentricity:    0.0704347
Arg of perigee:   082.4519 deg
Mean anomaly:     285.5947 deg
Mean motion:   14.23644034 rev/day
Decay rate:     4.3361e-04 rev/day^2
Epoch rev:            3607
Checksum:              320

Satellite: HORYU-2
Catalog number: 38340
Epoch time:      12299.77878823
Element set:     208
Inclination:      098.1866 deg
RA of node:       239.8910 deg
Eccentricity:    0.0011802
Arg of perigee:   279.2484 deg
Mean anomaly:     080.7387 deg
Mean motion:   14.70321274 rev/day
Decay rate:      2.623e-05 rev/day^2
Epoch rev:            2366
Checksum:              324

Satellite: RS-40
Catalog number: 38736
Epoch time:      12299.57642088
Element set:      89
Inclination:      082.4755 deg
RA of node:       301.4110 deg
Eccentricity:    0.0019881
Arg of perigee:   117.5622 deg
Mean anomaly:     242.7483 deg
Mean motion:   12.42647005 rev/day
Decay rate:        1.0e-07 rev/day^2
Epoch rev:            1110
Checksum:              279

Satellite: PROITERES
Catalog number: 38756
Epoch time:      12299.72731812
Element set:     167
Inclination:      098.2804 deg
RA of node:       006.1931 deg
Eccentricity:    0.0013542
Arg of perigee:   129.1357 deg
Mean anomaly:     231.1052 deg
Mean motion:   14.73937216 rev/day
Decay rate:      1.064e-05 rev/day^2
Epoch rev:             685
Checksum:              286

Satellite: AENEAS
Catalog number: 38760
Epoch time:      12298.31629831
Element set:    0047
Inclination:      064.6718 deg
RA of node:       276.8338 deg
Eccentricity:    0.0218398
Arg of perigee:   278.1463 deg
Mean anomaly:     079.4936 deg
Mean motion:   14.79328824 rev/day
Decay rate:     1.0038e-04 rev/day^2
Epoch rev:           00596
Checksum:              346

